Date_and_time,latitude,longitude,wind_speed,RelWindDirFrom,WindDirFrom,air_pressure,air_temperature,relative_humidity,Temp,platform_speed_wrt_ground,air_pressure_at_mean_sea_level,platform_orientation
2019-06-15 00:00,50.6304333333333,-96.9807766666667,12.4,14.2,13,979.41,18.9,50,17.26,0.0,1005.24,360.0
2019-06-15 00:10,50.630415,-96.9807933333333,11.3,13.3,11,979.46,18.7,52,17.28,0.0,1005.30,360.0
2019-06-15 00:20,50.6304283333333,-96.9807766666667,12.2,14.1,9,979.37,18.7,52,17.35,0.0,1005.21,360.0
2019-06-15 00:30,50.63043,-96.980775,12.7,14.7,9,979.29,18.6,53,17.51,0.0,1005.13,360.0
2019-06-15 00:40,50.63044,-96.9807433333333,12.7,14.4,12,979.28,18.6,52,17.52,0.0,1005.12,360.0
2019-06-15 00:50,50.630435,-96.9807766666667,14.0,16.9,20,979.26,18.6,51,17.52,0.0,1005.10,360.0
2019-06-15 01:00,50.6304333333333,-96.98078,14.9,17.2,24,979.22,18.6,51,17.53,0.0,1005.07,360.0
2019-06-15 01:10,50.6304366666667,-96.9807816666667,15.9,18.1,23,979.32,18.4,54,17.59,0.0,1005.17,360.0
2019-06-15 01:20,50.6304366666667,-96.9807783333333,15.9,18.7,22,979.45,18.3,53,17.57,0.0,1005.29,360.0
2019-06-15 01:30,50.630435,-96.9807783333333,15.0,17.2,24,979.67,18.2,55,17.55,0.0,1005.53,360.0
2019-06-15 01:40,50.6304333333333,-96.9807783333333,15.0,16.8,23,979.75,18.1,56,17.56,0.0,1005.61,360.0
2019-06-15 01:50,50.6304716666667,-96.9807583333333,14.0,16.1,24,979.96,18.0,56,17.55,0.0,1005.84,360.0
2019-06-15 02:00,50.6304566666667,-96.9807633333333,13.4,15.5,25,980.15,17.9,57,17.47,0.0,1006.04,29.9
2019-06-15 02:10,50.6304483333333,-96.9807683333333,13.4,15.7,28,980.24,17.7,58,17.39,0.0,1006.14,29.9
2019-06-15 02:20,50.6304433333333,-96.9807733333333,12.7,14.5,29,980.35,17.6,60,17.41,0.0,1006.27,29.9
2019-06-15 02:30,50.63044,-96.98077,12.8,15.2,30,980.51,17.4,60,17.48,0.0,1006.44,29.9
2019-06-15 02:40,50.6304233333333,-96.9807666666667,13.7,16.0,31,980.59,17.4,58,17.50,0.0,1006.52,29.9
2019-06-15 02:50,50.63043,-96.9807666666667,13.6,15.5,35,980.72,17.4,60,17.49,0.0,1006.66,29.9
2019-06-15 03:00,50.630435,-96.98076,13.7,15.8,38,980.80,17.3,61,17.49,0.0,1006.75,60.8
2019-06-15 03:10,50.630425,-96.9807666666667,14.6,17.1,40,980.84,17.3,58,17.50,0.0,1006.79,60.8
2019-06-15 03:20,50.6304233333333,-96.9807716666667,14.9,17.5,42,980.97,17.3,56,17.50,0.0,1006.93,60.8
2019-06-15 03:30,50.6304233333333,-96.9807666666667,15.7,18.3,47,981.11,17.3,55,17.52,0.0,1007.08,60.8
2019-06-15 03:40,50.6304266666667,-96.980765,15.1,17.4,49,981.13,17.2,58,17.54,0.0,1007.11,60.8
2019-06-15 03:50,50.6304433333333,-96.9807716666667,15.2,17.9,51,981.15,17.1,56,17.55,0.0,1007.14,60.8
2019-06-15 04:00,50.63044,-96.98077,15.9,18.5,52,981.19,17.1,53,17.53,0.0,1007.19,49.4
2019-06-15 04:10,50.630455,-96.9807616666667,16.2,18.8,56,981.34,17.0,52,17.51,0.0,1007.36,49.4
2019-06-15 04:20,50.63045,-96.9807633333333,16.4,19.4,59,981.46,16.9,53,17.50,0.0,1007.49,49.4
2019-06-15 04:30,50.6304466666667,-96.980765,16.7,19.8,60,981.62,16.9,53,17.48,0.0,1007.65,49.4
2019-06-15 04:40,50.630445,-96.98077,17.1,19.6,59,981.65,16.8,54,17.39,0.0,1007.69,49.4
2019-06-15 04:50,50.630445,-96.9807666666667,17.1,22.5,60,981.72,16.7,55,17.35,0.0,1007.77,49.4
2019-06-15 05:00,50.6304466666667,-96.9807666666667,20.6,23.7,63,981.59,16.6,49,17.33,0.0,1007.64,142.0
2019-06-15 05:10,50.6304466666667,-96.9807666666667,20.6,24.2,61,981.60,16.5,50,17.31,0.0,1007.66,142.0
2019-06-15 05:20,50.6304466666667,-96.9807683333333,20.5,23.5,65,981.80,16.4,50,17.31,0.0,1007.87,142.0
2019-06-15 05:30,50.6304483333333,-96.9807683333333,20.0,24.6,69,982.02,16.3,52,17.29,0.0,1008.11,142.0
2019-06-15 05:40,50.6304483333333,-96.9807683333333,18.6,22.1,71,982.21,16.1,53,17.28,0.0,1008.31,142.0
2019-06-15 05:50,50.6304483333333,-96.9807666666667,19.3,21.8,72,982.29,16.0,51,17.28,0.0,1008.39,142.0
2019-06-15 06:00,50.6304483333333,-96.9807666666667,18.8,22.7,76,982.33,15.9,50,17.25,0.0,1008.44,345.5
2019-06-15 06:10,50.6304483333333,-96.9807683333333,18.6,22.7,79,982.39,15.8,50,17.22,0.0,1008.51,345.5
2019-06-15 06:20,50.6304483333333,-96.9807683333333,18.5,22.5,80,982.47,15.7,50,17.21,0.0,1008.61,345.5
2019-06-15 06:30,50.6304483333333,-96.9807666666667,18.9,22.1,81,982.52,15.5,49,17.16,0.0,1008.66,345.5
2019-06-15 06:40,50.630415,-96.9807566666667,18.3,22.4,82,982.48,15.4,51,17.10,0.0,1008.64,345.5
2019-06-15 06:50,50.6304316666667,-96.9807583333333,17.8,22.4,83,982.47,15.3,52,17.10,0.0,1008.64,345.5
2019-06-15 07:00,50.6304483333333,-96.9807666666667,18.4,22.0,84,982.54,15.2,51,17.08,0.0,1008.71,38.0
2019-06-15 07:10,50.6304466666667,-96.9807666666667,17.3,22.7,84,982.58,15.1,52,17.08,0.0,1008.77,38.0
2019-06-15 07:20,50.6304433333333,-96.980765,16.7,21.1,87,982.76,15.0,52,17.14,0.0,1008.96,38.0
2019-06-15 07:30,50.6304283333333,-96.9807666666667,17.7,22.2,87,982.79,14.9,53,17.19,0.0,1009.00,38.0
2019-06-15 07:40,50.6304283333333,-96.980765,16.5,21.6,88,982.97,14.8,54,17.20,0.0,1009.19,38.0
2019-06-15 07:50,50.63042,-96.9807733333333,17.4,21.4,92,983.10,14.7,54,17.18,0.0,1009.34,38.0
2019-06-15 08:00,50.6304333333333,-96.980765,17.1,21.9,90,983.09,14.6,55,17.12,0.0,1009.35,161.1
2019-06-15 08:10,50.6304383333333,-96.9807683333333,18.4,22.9,90,983.05,14.4,55,17.06,0.0,1009.32,161.1
2019-06-15 08:20,50.6304383333333,-96.9807683333333,19.4,24.6,83,983.06,14.1,55,17.04,0.0,1009.34,161.1
2019-06-15 08:30,50.63044,-96.9807683333333,20.4,25.5,85,983.21,14.0,54,17.04,0.0,1009.51,161.1
2019-06-15 08:40,50.6304366666667,-96.9807683333333,19.1,23.3,86,983.39,13.8,56,17.03,0.0,1009.71,161.1
2019-06-15 08:50,50.6304366666667,-96.9807683333333,18.9,23.5,83,983.52,13.6,58,17.00,0.0,1009.85,161.1
2019-06-15 09:00,50.630435,-96.98077,19.5,24.2,82,983.63,13.4,59,17.00,0.0,1009.99,360.0
2019-06-15 09:10,50.630435,-96.9807716666667,19.4,23.9,84,983.76,13.2,59,16.98,0.0,1010.12,360.0
2019-06-15 09:20,50.6304366666667,-96.9807716666667,18.7,21.7,85,983.81,13.1,61,16.96,0.0,1010.19,360.0
2019-06-15 09:30,50.6304366666667,-96.9807716666667,18.6,23.8,86,983.91,13.0,61,16.95,0.0,1010.30,360.0
2019-06-15 09:40,50.6304383333333,-96.9807733333333,19.0,23.8,86,984.04,12.9,62,16.94,0.0,1010.44,360.0
2019-06-15 09:50,50.63044,-96.9807733333333,19.1,23.4,85,984.22,12.7,62,16.92,0.0,1010.64,360.0
2019-06-15 10:00,50.63044,-96.980775,19.4,23.6,87,984.41,12.6,62,16.93,0.0,1010.86,228.3
2019-06-15 10:10,50.63044,-96.9807733333333,18.8,22.1,89,984.59,12.5,63,16.94,0.0,1011.06,228.3
2019-06-15 10:20,50.63044,-96.9807733333333,18.1,21.9,89,984.71,12.5,64,16.93,0.0,1011.18,228.3
2019-06-15 10:30,50.6304416666667,-96.980775,18.6,23.0,90,984.80,12.5,63,16.94,0.0,1011.29,228.3
2019-06-15 10:40,50.6304416666667,-96.9807733333333,18.0,21.1,89,984.87,12.5,64,16.95,0.0,1011.37,228.3
2019-06-15 10:50,50.6304416666667,-96.9807733333333,16.8,20.4,88,984.94,12.5,64,16.94,0.0,1011.45,228.3
2019-06-15 11:00,50.6304466666667,-96.9807633333333,16.8,19.6,88,984.94,12.6,64,16.96,0.0,1011.45,18.9
2019-06-15 11:10,50.6304416666667,-96.9807716666667,18.3,22.7,86,984.92,12.6,64,16.96,0.0,1011.44,18.9
2019-06-15 11:20,50.6304316666667,-96.9807683333333,18.1,22.0,87,985.00,12.5,65,16.92,0.0,1011.52,18.9
2019-06-15 11:30,50.6304283333333,-96.98077,19.1,23.2,85,984.99,12.5,65,16.89,0.0,1011.52,18.9
2019-06-15 11:40,50.6304166666667,-96.9807466666667,20.2,23.9,80,985.00,12.4,67,16.85,0.0,1011.55,18.9
2019-06-15 11:50,50.6304083333333,-96.980775,19.8,25.4,81,985.02,12.4,67,16.81,0.0,1011.57,18.9
2019-06-15 12:00,50.6304233333333,-96.9807566666667,20.0,23.9,81,985.02,12.4,67,16.79,0.0,1011.58,138.7
2019-06-15 12:10,50.6304383333333,-96.980795,20.0,24.2,81,985.08,12.3,68,16.76,0.0,1011.64,138.7
2019-06-15 12:20,50.630435,-96.9807833333333,17.8,22.8,82,985.19,12.4,68,16.77,0.0,1011.75,138.7
2019-06-15 12:30,50.6304333333333,-96.980785,17.1,20.9,85,985.30,12.4,67,16.80,0.0,1011.86,138.7
2019-06-15 12:40,50.6304333333333,-96.980785,16.4,20.1,86,985.45,12.4,67,16.77,0.0,1012.02,138.7
2019-06-15 12:50,50.6304333333333,-96.9807833333333,15.4,18.8,88,985.61,12.5,67,16.73,0.0,1012.18,138.7
2019-06-15 13:00,50.6304333333333,-96.9807816666667,15.4,18.8,89,985.72,12.6,66,16.72,0.0,1012.29,216.6
2019-06-15 13:10,50.6304333333333,-96.9807816666667,15.0,17.6,91,985.75,12.7,65,16.70,0.0,1012.31,216.6
2019-06-15 13:20,50.6304333333333,-96.98076,14.1,17.4,93,985.78,12.8,65,16.68,0.0,1012.34,216.6
2019-06-15 13:30,50.6304316666667,-96.9807883333333,13.5,17.7,95,985.85,13.0,64,16.68,0.0,1012.40,216.6
2019-06-15 13:40,50.630435,-96.9807583333333,12.7,16.5,93,985.86,13.2,64,16.68,0.0,1012.41,216.6
2019-06-15 13:50,50.630435,-96.9807816666667,11.8,15.4,89,985.93,13.3,63,16.68,0.0,1012.47,216.6
2019-06-15 14:00,50.6304333333333,-96.9807783333333,11.7,14.9,93,986.04,13.5,63,16.67,0.0,1012.58,221.2
2019-06-15 14:10,50.630435,-96.9807766666667,12.2,15.6,92,986.11,13.5,61,16.68,0.0,1012.65,221.2
2019-06-15 14:20,50.6304266666667,-96.98078,11.2,15.0,86,986.09,13.5,62,16.70,0.0,1012.63,221.2
2019-06-15 14:30,50.6304283333333,-96.980785,11.2,14.1,92,986.25,13.7,60,16.72,0.0,1012.79,221.2
2019-06-15 14:40,50.630435,-96.9807466666667,11.5,15.0,88,986.27,13.7,59,16.70,0.0,1012.79,221.2
2019-06-15 14:50,50.6304316666667,-96.98076,10.6,14.2,83,986.29,13.8,60,16.68,0.0,1012.81,221.2
2019-06-15 15:00,50.630435,-96.9807633333333,10.5,13.5,82,986.30,13.7,60,16.68,0.0,1012.82,318.7
2019-06-15 15:10,50.630435,-96.9807666666667,11.6,14.5,79,986.33,13.9,59,16.68,0.0,1012.84,318.7
2019-06-15 15:20,50.63044,-96.9807866666667,11.8,14.4,78,986.38,14.1,58,16.69,0.0,1012.88,318.7
2019-06-15 15:30,50.6304383333333,-96.98078,11.9,14.9,76,986.38,14.1,58,16.69,0.0,1012.86,318.7
2019-06-15 15:40,50.630435,-96.98078,12.4,15.2,75,986.36,14.2,57,16.71,0.0,1012.83,318.7
2019-06-15 15:50,50.6304216666667,-96.9807733333333,12.7,16.0,74,986.32,14.5,56,16.72,0.0,1012.78,318.7
2019-06-15 16:00,50.6304266666667,-96.9807716666667,13.0,16.5,72,986.36,14.6,55,16.73,0.0,1012.81,125.3
2019-06-15 16:10,50.63043,-96.9807683333333,13.1,16.1,67,986.34,14.9,54,16.75,0.0,1012.77,125.3
2019-06-15 16:20,50.6304316666667,-96.9807666666667,11.8,14.5,68,986.39,14.9,53,16.76,0.0,1012.81,125.3
2019-06-15 16:30,50.630435,-96.9807633333333,10.9,14.4,67,986.42,15.0,54,16.78,0.0,1012.84,125.3
2019-06-15 16:40,50.6304366666667,-96.9807633333333,14.8,18.0,58,986.29,14.9,54,16.80,0.0,1012.71,125.3
2019-06-15 16:50,50.6304383333333,-96.9807633333333,15.6,18.4,56,986.27,14.8,54,16.81,0.0,1012.69,125.3
2019-06-15 17:00,50.6304383333333,-96.9807633333333,14.9,18.0,52,986.15,14.9,54,16.83,0.0,1012.55,49.4
2019-06-15 17:10,50.6304366666667,-96.9807633333333,15.7,18.9,55,986.06,15.1,53,16.83,0.0,1012.45,49.4
2019-06-15 17:20,50.6304366666667,-96.9807633333333,15.5,17.8,52,985.96,15.2,53,16.84,0.0,1012.33,49.4
2019-06-15 17:30,50.6304533333333,-96.9807816666667,14.9,17.8,53,985.93,15.3,51,16.88,0.0,1012.30,49.4
2019-06-15 17:40,50.6304466666667,-96.9807633333333,13.7,16.4,54,985.88,15.5,51,16.91,0.0,1012.23,49.4
2019-06-15 17:50,50.630445,-96.9807633333333,12.8,15.1,55,985.85,15.7,51,16.92,0.0,1012.17,49.4
2019-06-15 18:00,50.6304433333333,-96.980765,14.0,16.8,55,985.73,16.0,51,16.89,0.0,1012.03,38.0
2019-06-15 18:10,50.630445,-96.9807683333333,12.0,14.5,52,985.72,16.1,54,16.87,0.0,1012.01,38.0
2019-06-15 18:20,50.6304516666667,-96.9808033333333,13.2,15.6,53,985.57,16.3,52,16.85,0.0,1011.84,38.0
2019-06-15 18:30,50.6304333333333,-96.9807916666667,13.7,15.3,57,985.51,16.5,49,16.84,0.0,1011.78,38.0
2019-06-15 18:40,50.63043,-96.9807833333333,13.1,15.7,56,985.51,16.5,48,16.83,0.0,1011.79,38.0
2019-06-15 18:50,50.6304333333333,-96.98078,11.3,13.2,49,985.59,16.5,48,16.82,0.0,1011.86,38.0
2019-06-15 19:00,50.630435,-96.9807816666667,9.9,11.4,48,985.59,16.7,52,16.79,0.0,1011.85,323.4
2019-06-15 19:10,50.630435,-96.9807783333333,9.5,11.7,12,985.53,16.1,60,16.81,0.0,1011.80,323.4
2019-06-15 19:20,50.630435,-96.9807766666667,9.8,12.6,3,985.43,16.0,60,16.93,0.0,1011.70,323.4
2019-06-15 19:30,50.6304466666667,-96.9807783333333,9.6,11.8,4,985.38,16.0,60,16.93,0.0,1011.64,323.4
2019-06-15 19:40,50.6304466666667,-96.9807683333333,9.8,12.6,8,985.34,16.2,60,16.86,0.0,1011.57,323.4
2019-06-15 19:50,50.6304483333333,-96.9807733333333,9.0,11.0,13,985.36,16.4,58,16.92,0.0,1011.58,323.4
2019-06-15 20:00,50.6304466666667,-96.9807733333333,8.6,10.7,8,985.33,16.7,56,16.92,0.0,1011.54,311.7
2019-06-15 20:10,50.630445,-96.9807716666667,7.8,9.6,6,985.36,16.8,60,16.93,0.0,1011.55,311.7
2019-06-15 20:20,50.6304533333333,-96.980795,7.1,8.4,15,985.35,17.0,61,16.97,0.0,1011.52,311.7
2019-06-15 20:30,50.630425,-96.9807616666667,7.2,9.8,11,985.38,17.1,58,17.10,0.0,1011.55,311.7
2019-06-15 20:40,50.6304233333333,-96.9807683333333,9.0,10.5,14,985.36,17.2,55,17.27,0.0,1011.52,311.7
2019-06-15 20:50,50.6304266666667,-96.9807716666667,7.7,10.1,8,985.36,17.2,56,17.40,0.0,1011.52,311.7
2019-06-15 21:00,50.6304116666667,-96.9807833333333,8.0,9.9,5,985.33,17.2,54,17.37,0.0,1011.51,216.2
2019-06-15 21:10,50.6304333333333,-96.980785,6.9,9.1,5,985.32,17.3,52,17.21,0.0,1011.49,216.2
2019-06-15 21:20,50.6304366666667,-96.9807933333333,7.2,9.0,1,985.30,17.4,53,17.15,0.0,1011.47,216.2
2019-06-15 21:30,50.6304366666667,-96.9807916666667,6.2,8.0,2,985.34,17.5,51,17.15,0.0,1011.50,216.2
2019-06-15 21:40,50.6304383333333,-96.9807883333333,3.4,5.2,4,985.37,17.6,51,17.15,0.0,1011.52,216.2
2019-06-15 21:50,50.6304366666667,-96.9807883333333,2.8,3.7,24,985.40,17.6,53,17.17,0.0,1011.53,216.2
2019-06-15 22:00,50.63042,-96.9807883333333,3.0,4.2,16,985.35,17.5,54,17.18,0.0,1011.48,203.5
2019-06-15 22:10,50.6304566666667,-96.9807666666667,3.7,4.7,15,985.28,17.6,51,17.20,0.0,1011.40,203.5
2019-06-15 22:20,50.63044,-96.9807733333333,4.5,5.2,3,985.21,17.6,54,17.21,0.0,1011.32,203.5
2019-06-15 22:30,50.6304416666667,-96.98078,5.5,6.9,2,985.12,17.6,55,17.24,0.0,1011.22,203.5
2019-06-15 22:40,50.6304466666667,-96.980805,5.9,6.9,1,985.04,17.7,53,17.27,0.0,1011.14,203.5
2019-06-15 22:50,50.63043,-96.9807816666667,4.8,6.2,2,985.02,17.9,52,17.34,0.0,1011.11,203.5
2019-06-15 23:00,50.630425,-96.9807383333333,5.2,6.2,5,984.96,18.1,48,17.32,0.0,1011.03,131.9
2019-06-15 23:10,50.63043,-96.9807566666667,6.1,8.1,5,984.92,18.0,52,17.28,0.0,1010.99,131.9
2019-06-15 23:20,50.6304316666667,-96.9807683333333,6.0,8.1,9,984.91,17.9,52,17.28,0.0,1010.98,131.9
2019-06-15 23:30,50.6304333333333,-96.980775,7.2,8.7,3,984.83,17.9,54,17.31,0.0,1010.90,131.9
2019-06-15 23:40,50.630445,-96.98076,8.2,9.9,358,984.70,17.8,59,17.32,0.0,1010.77,131.9
